Date String (YYYY-MM-DD hh:mm:ss) UTC,Instrument flags,Ambient pressure (hPa),Sample flow (lpm),Bypass flow (lpm),Sample temperature (°C),Ambient temperature (°C),ASC tube jacket temperature (°C),LED temperature (°C),Box temperature (°C),Sample RH (%),Span deviation,Mass concentration (μg/m³),Mass concentration (μg/m³),Mass concentration (μg/m³)
DateTimeUTC,F1_M11,P_M11,Q1_M11,Q2_M11,T1_M11,T2_M11,T3_M11,T4_M11,T5_M11,U1_M11,ZSPAN_M11,X0_M11,X2_M11,X1_M11
2023-03-13 07:00:00,,0826.2,5.00,0.00,22.5,20.8,00.0,31.2,24.1,13.5,0000.0,0009.63,0005.00,0004.66
2023-03-13 07:01:00,,0826.2,5.01,0.00,22.4,20.8,00.0,31.2,24.1,13.5,0000.0,0010.02,0004.98,0004.63
2023-03-13 07:02:00,,0826.2,5.00,0.00,22.4,20.7,00.0,31.2,24.1,13.5,0000.0,0010.04,0004.97,0004.61
2023-03-13 07:03:00,,0826.2,5.01,0.00,22.4,20.6,00.0,31.2,24.1,13.5,0000.0,0010.06,0004.98,0004.59
2023-03-13 07:04:00,,0826.2,4.99,0.00,22.4,20.6,00.0,31.2,24.1,13.5,0000.0,0010.05,0004.96,0004.57
2023-03-13 07:05:00,,0826.2,5.00,0.00,22.4,20.6,00.0,31.2,24.0,13.5,0000.0,0009.75,0004.93,0004.55
2023-03-13 07:06:00,,0826.2,5.01,0.00,22.3,20.6,00.0,31.2,24.0,13.6,0000.0,0009.01,0004.92,0004.55
2023-03-13 07:07:00,,0826.2,5.00,0.00,22.3,20.5,00.0,31.2,24.0,13.7,0000.0,0008.86,0004.89,0004.53
2023-03-13 07:08:00,,0826.2,4.99,0.00,22.3,20.5,00.0,31.1,23.9,13.7,-000.3,0008.87,0004.92,0004.55
2023-03-13 07:09:00,,0826.2,5.00,0.00,22.2,20.4,00.0,31.1,23.9,13.8,0000.0,0008.21,0004.93,0004.60
2023-03-13 07:10:00,,0826.2,5.01,0.00,22.2,20.5,00.0,31.1,23.9,13.9,-000.2,0008.25,0004.97,0004.63
2023-03-13 07:11:00,,0826.2,4.98,0.00,22.3,21.5,00.0,31.1,24.2,13.8,-000.0,0008.05,0004.98,0004.66
2023-03-13 07:12:00,,0826.2,4.99,0.00,22.4,22.6,00.0,31.1,24.4,13.8,0000.1,0007.63,0005.01,0004.70
2023-03-13 07:13:00,,0826.2,5.01,0.00,22.5,22.9,00.0,31.1,24.5,13.8,-000.3,0007.73,0005.07,0004.74
2023-03-13 07:14:00,,0826.2,4.99,0.00,22.6,22.5,00.0,31.2,24.5,13.9,-000.6,0007.85,0005.14,0004.81
2023-03-13 07:15:00,,0826.2,5.00,0.00,22.6,22.1,00.0,31.2,24.4,14.0,-000.7,0007.95,0005.19,0004.87
2023-03-13 07:16:00,,0826.2,5.00,0.00,22.6,21.8,00.0,31.2,24.3,14.0,-000.5,0008.07,0005.27,0004.93
2023-03-13 07:17:00,,0826.2,5.01,0.00,22.5,21.5,00.0,31.2,24.3,14.0,-000.2,0008.14,0005.30,0004.95
2023-03-13 07:18:00,,0826.2,5.00,0.00,22.5,21.3,00.0,31.2,24.2,14.0,-000.2,0008.27,0005.33,0004.96
2023-03-13 07:19:00,,0826.4,5.00,0.00,22.5,21.1,00.0,31.2,24.2,14.0,-000.3,0008.31,0005.34,0004.96
2023-03-13 07:20:00,,0826.2,4.99,0.00,22.5,21.0,00.0,31.2,24.2,13.9,-000.5,0008.37,0005.34,0004.94
2023-03-13 07:21:00,,0826.2,5.00,0.00,22.4,20.9,00.0,31.2,24.1,13.9,-000.3,0008.43,0005.35,0004.91
2023-03-13 07:22:00,,0826.2,5.00,0.00,22.4,20.8,00.0,31.2,24.1,13.9,0000.0,0008.44,0005.33,0004.88
2023-03-13 07:23:00,,0826.2,5.00,0.00,22.4,20.8,00.0,31.2,24.1,13.9,-000.3,0008.57,0005.28,0004.83
2023-03-13 07:24:00,,0826.2,5.00,0.00,22.4,20.7,00.0,31.2,24.1,13.9,0000.6,0008.67,0005.23,0004.79
2023-03-13 07:25:00,,0826.3,5.01,0.00,22.4,20.7,00.0,31.2,24.1,14.0,0001.2,0008.80,0005.15,0004.74
2023-03-13 07:26:00,,0826.2,4.99,0.00,22.4,20.7,00.0,31.2,24.1,14.0,0000.2,0008.69,0005.10,0004.69
2023-03-13 07:27:00,,0826.2,5.01,0.00,22.3,20.6,00.0,31.1,24.0,14.0,0000.0,0008.73,0005.03,0004.65
2023-03-13 07:28:00,,0826.3,4.99,0.00,22.3,20.6,00.0,31.1,24.0,14.0,0000.0,0008.68,0004.97,0004.60
2023-03-13 07:29:00,,0826.2,5.00,0.00,22.3,21.0,00.0,31.1,24.1,14.0,0000.0,0008.87,0004.93,0004.56
2023-03-13 07:30:00,,0826.3,5.02,0.00,22.4,22.1,00.0,31.1,24.3,13.9,0000.0,0009.30,0004.94,0004.53
2023-03-13 07:31:00,,0826.3,5.00,0.00,22.5,23.0,00.0,31.1,24.6,13.8,0000.0,0009.27,0004.91,0004.51
2023-03-13 07:32:00,,0826.4,5.00,0.00,22.6,22.9,00.0,31.2,24.6,13.7,0000.0,0009.18,0004.85,0004.48
2023-03-13 07:33:00,,0826.3,5.00,0.00,22.7,22.5,00.0,31.2,24.6,13.6,0000.0,0009.05,0004.80,0004.46
2023-03-13 07:34:00,,0826.3,4.99,0.00,22.7,22.1,00.0,31.2,24.5,13.6,0000.0,0008.81,0004.77,0004.45
2023-03-13 07:35:00,,0826.4,5.01,0.00,22.6,21.9,00.0,31.3,24.5,13.5,0000.0,0008.57,0004.75,0004.43
2023-03-13 07:36:00,,0826.2,5.00,0.00,22.6,21.7,00.0,31.3,24.4,13.5,0000.0,0008.33,0004.73,0004.41
2023-03-13 07:37:00,,0826.3,4.99,0.00,22.6,21.5,00.0,31.3,24.4,13.5,0000.0,0008.30,0004.70,0004.38
2023-03-13 07:38:00,,0826.3,5.00,0.00,22.6,21.4,00.0,31.3,24.3,13.5,0000.0,0008.05,0004.67,0004.35
2023-03-13 07:39:00,,0826.3,5.00,0.00,22.6,21.2,00.0,31.3,24.3,13.5,0000.0,0007.92,0004.62,0004.33
2023-03-13 07:40:00,,0826.3,5.00,0.00,22.6,21.1,00.0,31.3,24.3,13.5,0000.0,0007.48,0004.59,0004.29
2023-03-13 07:41:00,,0826.3,5.00,0.00,22.6,21.1,00.0,31.3,24.3,13.5,0000.0,0006.71,0004.51,0004.26
2023-03-13 07:42:00,,0826.4,4.99,0.00,22.6,21.0,00.0,31.3,24.3,13.5,0000.0,0006.63,0004.47,0004.25
2023-03-13 07:43:00,,0826.2,4.99,0.00,22.5,21.0,00.0,31.3,24.3,13.5,0000.0,0006.60,0004.44,0004.22
2023-03-13 07:44:00,,0826.3,5.01,0.00,22.5,20.9,00.0,31.3,24.2,13.5,0000.0,0007.39,0004.44,0004.21
2023-03-13 07:45:00,,0826.3,5.00,0.00,22.5,20.8,00.0,31.3,24.2,13.5,0000.0,0007.56,0004.41,0004.19
2023-03-13 07:46:00,,0826.2,5.01,0.00,22.5,20.8,00.0,31.3,24.2,13.5,0000.0,0007.53,0004.40,0004.18
2023-03-13 07:47:00,,0826.3,5.01,0.00,22.4,20.8,00.0,31.2,24.2,13.6,0000.0,0007.45,0004.37,0004.17
2023-03-13 07:48:00,,0826.3,5.00,0.00,22.4,20.7,00.0,31.2,24.1,13.6,0000.0,0007.46,0004.37,0004.16
2023-03-13 07:49:00,,0826.4,5.01,0.00,22.4,20.7,00.0,31.2,24.1,13.6,0000.0,0007.51,0004.36,0004.14
2023-03-13 07:50:00,,0826.3,5.00,0.00,22.4,20.8,00.0,31.2,24.1,13.6,0000.0,0007.54,0004.36,0004.14
2023-03-13 07:51:00,,0826.3,4.99,0.00,22.5,21.8,00.0,31.2,24.3,13.4,0000.0,0007.50,0004.34,0004.13
2023-03-13 07:52:00,,0826.3,4.97,0.00,22.6,22.8,00.0,31.2,24.6,13.2,0000.0,0007.70,0004.35,0004.13
2023-03-13 07:53:00,,0826.3,5.02,0.00,22.7,23.0,00.0,31.2,24.7,13.0,0000.0,0007.84,0004.36,0004.13
2023-03-13 07:54:00,,0826.3,5.00,0.00,22.7,22.6,00.0,31.3,24.6,13.0,0000.0,0007.74,0004.35,0004.13
2023-03-13 07:55:00,,0826.2,5.01,0.00,22.7,22.2,00.0,31.3,24.5,12.9,0000.0,0006.98,0004.35,0004.13
2023-03-13 07:56:00,,0826.4,5.00,0.00,22.7,21.9,00.0,31.3,24.4,12.9,0000.0,0007.26,0004.37,0004.14
2023-03-13 07:57:00,,0826.2,5.00,0.00,22.7,21.6,00.0,31.3,24.3,12.9,0000.0,0007.63,0004.38,0004.15
2023-03-13 07:58:00,,0826.2,4.99,0.00,22.6,21.4,00.0,31.3,24.3,12.9,0000.0,0007.78,0004.39,0004.15
2023-03-13 07:59:00,,0826.2,5.00,0.00,22.6,21.2,00.0,31.3,24.2,12.9,0000.0,0007.77,0004.39,0004.15
